| time (UTC) | temp F | wind direction | speed MPH | gust MPH | rain 1hr in | rain 24hr in | rain mn in | humidity % | barometer mb |
| 20260505215050 | 50 | 316 | 0.0 | 2.0 | 0.00 | 0.76 | 0.76 | 79 | |
| 20260505214548 | 50 | 291 | 0.0 | 0.0 | 0.00 | 0.76 | 0.76 | 80 | |
| 20260505214044 | 50 | 321 | 0.0 | 0.0 | 0.00 | 0.76 | 0.76 | 79 | |
| 20260505213542 | 49 | 311 | 0.0 | 0.0 | 0.00 | 0.76 | 0.76 | 78 | |
| 20260505213038 | 50 | 321 | 0.0 | 0.0 | 0.00 | 0.76 | 0.76 | 79 | |
| 20260505212535 | 50 | 326 | 0.0 | 1.0 | 0.00 | 0.76 | 0.76 | 79 | |
| 20260505212032 | 50 | 309 | 0.0 | 2.0 | 0.00 | 0.76 | 0.76 | 79 | |
| 20260505211529 | 49 | 280 | 2.0 | 2.0 | 0.00 | 0.76 | 0.76 | 77 | |
| 20260505211025 | 49 | 324 | 0.0 | 1.0 | 0.00 | 0.76 | 0.76 | 78 | |
| 20260505210522 | 48 | 319 | 1.0 | 2.0 | 0.00 | 0.76 | 0.76 | 79 | |
| 20260505210020 | 49 | 311 | 0.0 | 2.0 | 0.00 | 0.76 | 0.76 | 82 | |
| 20260505205518 | 49 | 326 | 0.0 | 2.0 | 0.00 | 0.76 | 0.76 | 83 | |
| 20260505205014 | 48 | 308 | 0.0 | 0.0 | 0.00 | 0.76 | 0.76 | 83 | |
| 20260505204512 | 48 | 277 | 0.0 | 2.0 | 0.00 | 0.76 | 0.76 | 83 | |
| 20260505204009 | 48 | 293 | 0.0 | 2.0 | 0.00 | 0.76 | 0.76 | 82 | |
| 20260505203506 | 48 | 281 | 0.0 | 0.0 | 0.00 | 0.76 | 0.76 | 83 | |
| 20260505203002 | 48 | 319 | 0.0 | 2.0 | 0.00 | 0.76 | 0.76 | 81 | |
| 20260505202459 | 48 | 304 | 2.0 | 3.0 | 0.00 | 0.76 | 0.76 | 82 | |
| 20260505201954 | 48 | 241 | 3.0 | 3.0 | 0.00 | 0.76 | 0.76 | 83 | |
| 20260505201452 | 48 | 303 | 0.0 | 0.0 | 0.00 | 0.76 | 0.76 | 82 | |
| 20260505200949 | 48 | 302 | 0.0 | 3.0 | 0.00 | 0.76 | 0.76 | 81 | |
| 20260505200447 | 48 | 299 | 2.0 | 2.0 | 0.00 | 0.76 | 0.76 | 80 | |
| 20260505195943 | 47 | 322 | 0.0 | 1.0 | 0.00 | 0.76 | 0.76 | 80 | |
| 20260505195440 | 47 | 308 | 1.0 | 2.0 | 0.00 | 0.76 | 0.76 | 82 | |
| 20260505194937 | 47 | 319 | 1.0 | 2.0 | 0.00 | 0.76 | 0.76 | 82 | |
| 20260505194434 | 47 | 326 | 0.0 | 0.0 | 0.00 | 0.76 | 0.76 | 83 | |
| 20260505193934 | 47 | 312 | 0.0 | 0.0 | 0.00 | 0.76 | 0.76 | 82 | |
| 20260505193432 | 47 | 329 | 0.0 | 1.0 | 0.00 | 0.76 | 0.76 | 82 | |
| 20260505192930 | 47 | 327 | 0.0 | 2.0 | 0.00 | 0.76 | 0.76 | 82 | |
| 20260505192428 | 47 | 330 | 0.0 | 3.0 | 0.00 | 0.76 | 0.76 | 82 | |
| 20260505191925 | 47 | 320 | 0.0 | 2.0 | 0.00 | 0.76 | 0.76 | 82 | |
| 20260505191424 | 47 | 334 | 2.0 | 3.0 | 0.00 | 0.76 | 0.76 | 83 | |
| 20260505190920 | 47 | 326 | 0.0 | 0.0 | 0.00 | 0.76 | 0.76 | 85 | |
| 20260505190416 | 46 | 336 | 0.0 | 2.0 | 0.00 | 0.76 | 0.76 | 85 | |
| 20260505185911 | 47 | 334 | 0.0 | 0.0 | 0.00 | 0.76 | 0.76 | 86 | |
| 20260505185409 | 46 | 331 | 1.0 | 2.0 | 0.00 | 0.76 | 0.76 | 86 | |
| 20260505184904 | 47 | 332 | 0.0 | 0.0 | 0.00 | 0.76 | 0.76 | 87 | |
| 20260505184401 | 47 | 331 | 0.0 | 0.0 | 0.00 | 0.76 | 0.76 | 87 | |
| 20260505183858 | 47 | 341 | 1.0 | 1.0 | 0.00 | 0.76 | 0.76 | 87 | |
| 20260505183355 | 46 | 324 | 0.0 | 1.0 | 0.00 | 0.76 | 0.76 | 87 | |
| 20260505182852 | 47 | 295 | 0.0 | 1.0 | 0.00 | 0.76 | 0.76 | 87 | |
| 20260505182349 | 46 | 326 | 0.0 | 2.0 | 0.00 | 0.76 | 0.76 | 87 | |
| 20260505181845 | 46 | 312 | 1.0 | 2.0 | 0.00 | 0.76 | 0.76 | 87 | |
| 20260505181343 | 46 | 331 | 0.0 | 3.0 | 0.00 | 0.76 | 0.76 | 87 | |
| 20260505180839 | 46 | 322 | 0.0 | 2.0 | 0.00 | 0.76 | 0.76 | 87 | |
| 20260505180336 | 46 | 321 | 0.0 | 2.0 | 0.00 | 0.76 | 0.76 | 87 | |
| 20260505175832 | 46 | 319 | 0.0 | 1.0 | 0.00 | 0.76 | 0.76 | 87 | |
| 20260505175329 | 46 | 289 | 2.0 | 3.0 | 0.00 | 0.76 | 0.76 | 87 | |
| 20260505174825 | 46 | 328 | 0.0 | 2.0 | 0.00 | 0.76 | 0.76 | 87 | |
| 20260505174323 | 46 | 320 | 0.0 | 0.0 | 0.00 | 0.76 | 0.76 | 88 | |
| 20260505173819 | 46 | 330 | 1.0 | 1.0 | 0.00 | 0.76 | 0.76 | 88 | |
| 20260505173315 | 46 | 292 | 0.0 | 5.0 | 0.00 | 0.76 | 0.76 | 88 | |
| 20260505172813 | 46 | 298 | 2.0 | 2.0 | 0.00 | 0.76 | 0.76 | 87 | |
| 20260505172310 | 46 | 333 | 0.0 | 2.0 | 0.00 | 0.76 | 0.76 | 88 | |
| 20260505171804 | 46 | 335 | 1.0 | 2.0 | 0.07 | 0.76 | 0.76 | 88 | |
| 20260505171301 | 46 | 315 | 0.0 | 1.0 | 0.12 | 0.76 | 0.76 | 88 | |
| 20260505170758 | 46 | 289 | 1.0 | 2.0 | 0.05 | 0.75 | 0.75 | 88 | |
| 20260505170255 | 46 | 332 | 0.0 | 1.0 | 0.00 | 0.74 | 0.74 | 88 | |
| 20260505165755 | 46 | 333 | 1.0 | 2.0 | 0.00 | 0.74 | 0.74 | 87 | |
| 20260505165252 | 45 | 335 | 2.0 | 2.0 | 0.00 | 0.74 | 0.74 | 86 | |
| 20260505164747 | 45 | 335 | 1.0 | 2.0 | 0.00 | 0.74 | 0.74 | 87 | |
| 20260505164245 | 46 | 296 | 0.0 | 3.0 | 0.00 | 0.74 | 0.74 | 88 | |
| 20260505163743 | 46 | 321 | 0.0 | 2.0 | 0.00 | 0.74 | 0.74 | 88 | |
| 20260505163242 | 45 | 335 | 1.0 | 5.0 | 0.00 | 0.74 | 0.74 | 88 | |
| 20260505162739 | 45 | 321 | 1.0 | 2.0 | 0.12 | 0.74 | 0.74 | 89 | |
| 20260505162235 | 46 | 304 | 0.0 | 2.0 | 0.12 | 0.74 | 0.74 | 88 | |
| 20260505161732 | 46 | 242 | 2.0 | 6.0 | 0.00 | 0.72 | 0.72 | 89 | |
| 20260505161230 | 46 | 313 | 1.0 | 3.0 | 0.00 | 0.72 | 0.72 | 89 | |
| 20260505160727 | 46 | 328 | 2.0 | 2.0 | 0.07 | 0.72 | 0.72 | 89 | |
| 20260505160225 | 46 | 319 | 0.0 | 0.0 | 0.00 | 0.71 | 0.71 | 89 | |
| 20260505153203 | 46 | 290 | 1.0 | 3.0 | 0.00 | 0.69 | 0.69 | 89 | |
| 20260505152700 | 46 | 306 | 0.0 | 2.0 | 0.00 | 0.69 | 0.69 | 89 | |
| 20260505152156 | 46 | 282 | 2.0 | 2.0 | 0.00 | 0.69 | 0.69 | 89 | |
| 20260505151652 | 46 | 332 | 0.0 | 1.0 | 0.00 | 0.69 | 0.69 | 90 | |
| 20260505151149 | 46 | 310 | 0.0 | 1.0 | 0.00 | 0.69 | 0.69 | 90 | |
| 20260505150645 | 46 | 310 | 1.0 | 2.0 | 0.00 | 0.69 | 0.69 | 90 | |
| 20260505150143 | 46 | 228 | 3.0 | 3.0 | 0.00 | 0.69 | 0.69 | 91 | |
| 20260505140611 | 46 | 328 | 0.0 | 0.0 | 0.12 | 0.67 | 0.67 | 91 | |
| 20260505140108 | 46 | 310 | 0.0 | 1.0 | 0.12 | 0.66 | 0.66 | 91 | |
| 20260505125024 | 47 | 309 | 0.0 | 1.0 | 0.00 | 0.56 | 0.56 | 85 | |
| 20260505124521 | 47 | 300 | 0.0 | 0.0 | 0.00 | 0.56 | 0.56 | 85 | |
| 20260505124017 | 47 | 326 | 0.0 | 0.0 | 0.00 | 0.56 | 0.56 | 85 | |
| 20260505123514 | 47 | 328 | 1.0 | 2.0 | 0.00 | 0.56 | 0.56 | 84 | |
| 20260505123010 | 47 | 355 | 2.0 | 2.0 | 0.00 | 0.56 | 0.56 | 85 | |
| 20260505122507 | 47 | 329 | 1.0 | 3.0 | 0.12 | 0.56 | 0.56 | 83 | |
| 20260505122004 | 48 | 330 | 0.0 | 3.0 | 0.12 | 0.56 | 0.56 | 81 | |
| 20260505121500 | 48 | 353 | 3.0 | 5.0 | 0.07 | 0.54 | 0.54 | 80 | |
| 20260505120957 | 48 | 339 | 2.0 | 2.0 | 0.05 | 0.53 | 0.53 | 79 | |
| 20260505120453 | 48 | 339 | 2.0 | 2.0 | 0.05 | 0.53 | 0.53 | 79 | |
| 20260505115952 | 48 | 328 | 1.0 | 5.0 | 0.00 | 0.52 | 0.52 | 77 | |
| 20260505115449 | 48 | 332 | 1.0 | 7.0 | 0.00 | 0.52 | 0.52 | 78 | |
| 20260505114947 | 48 | 298 | 0.0 | 3.0 | 0.00 | 0.52 | 0.52 | 79 | |
| 20260505114443 | 48 | 306 | 1.0 | 2.0 | 0.00 | 0.52 | 0.52 | 81 | |
| 20260505113940 | 48 | 322 | 1.0 | 2.0 | 0.00 | 0.52 | 0.52 | 82 | |
| 20260505113436 | 48 | 324 | 0.0 | 0.0 | 0.00 | 0.52 | 0.52 | 81 | |
| 20260505112932 | 48 | 331 | 1.0 | 1.0 | 0.07 | 0.52 | 0.52 | 81 | |
| 20260505112430 | 48 | 321 | 1.0 | 3.0 | 0.07 | 0.52 | 0.52 | 80 | |
| 20260505111926 | 48 | 321 | 0.0 | 1.0 | 0.00 | 0.51 | 0.51 | 81 | |
| 20260505111421 | 48 | 328 | 0.0 | 2.0 | 0.00 | 0.51 | 0.51 | 81 | |
| 20260505110917 | 48 | 320 | 0.0 | 3.0 | 0.00 | 0.51 | 0.51 | 80 | |
| 20260505110414 | 48 | 321 | 0.0 | 0.0 | 0.00 | 0.51 | 0.51 | 82 | |
| 20260505101845 | 48 | 328 | 1.0 | 7.0 | 0.00 | 0.50 | 0.50 | 82 | |
| 20260505101339 | 48 | 319 | 0.0 | 2.0 | 0.00 | 0.50 | 0.50 | 82 | |
| 20260505100836 | 48 | 295 | 1.0 | 2.0 | 0.00 | 0.50 | 0.50 | 82 | |
| 20260505100333 | 48 | 311 | 2.0 | 3.0 | 0.00 | 0.50 | 0.50 | 82 | |
| 20260505095828 | 47 | 356 | 2.0 | 5.0 | 0.00 | 0.50 | 0.50 | 83 | |
| 20260505095326 | 47 | 273 | 1.0 | 5.0 | 0.00 | 0.50 | 0.50 | 84 | |
| 20260505094822 | 47 | 282 | 1.0 | 3.0 | 0.00 | 0.50 | 0.50 | 84 | |
| 20260505094319 | 47 | 309 | 1.0 | 2.0 | 0.00 | 0.50 | 0.50 | 84 | |
| 20260505093814 | 47 | 313 | 1.0 | 3.0 | 0.00 | 0.50 | 0.50 | 85 | |
| 20260505093312 | 46 | 307 | 1.0 | 2.0 | 0.00 | 0.50 | 0.50 | 85 | |
| 20260505092808 | 46 | 314 | 1.0 | 2.0 | 0.00 | 0.50 | 0.50 | 85 | |
| 20260505092307 | 46 | 292 | 1.0 | 2.0 | 0.00 | 0.50 | 0.50 | 85 | |
| 20260505091804 | 46 | 312 | 1.0 | 2.0 | 0.00 | 0.50 | 0.50 | 86 | |
| 20260505091302 | 46 | 324 | 0.0 | 1.0 | 0.00 | 0.50 | 0.50 | 87 | |
| 20260505090800 | 46 | 335 | 0.0 | 5.0 | 0.00 | 0.50 | 0.50 | 86 | |
| 20260505090258 | 46 | 312 | 1.0 | 3.0 | 0.00 | 0.50 | 0.50 | 86 | |
| 20260505085755 | 46 | 345 | 3.0 | 3.0 | 0.00 | 0.50 | 0.50 | 87 | |
| 20260505085253 | 46 | 259 | 2.0 | 2.0 | 0.00 | 0.50 | 0.50 | 88 | |
| 20260505084750 | 46 | 311 | 1.0 | 3.0 | 0.00 | 0.50 | 0.50 | 88 | |
| 20260505084249 | 46 | 196 | 1.0 | 6.0 | 0.00 | 0.50 | 0.50 | 88 | |
| 20260505083746 | 46 | 326 | 3.0 | 7.0 | 0.00 | 0.50 | 0.50 | 89 | |
| 20260505083242 | 46 | 278 | 2.0 | 3.0 | 0.00 | 0.50 | 0.50 | 88 | |
| 20260505082739 | 46 | 273 | 3.0 | 3.0 | 0.00 | 0.50 | 0.50 | 88 | |
| 20260505082236 | 46 | 266 | 4.0 | 6.0 | 0.00 | 0.50 | 0.50 | 89 | |
| 20260505081732 | 47 | 278 | 1.0 | 5.0 | 0.00 | 0.50 | 0.50 | 89 | |
| 20260505081229 | 47 | 283 | 2.0 | 5.0 | 0.07 | 0.50 | 0.50 | 89 | |
| 20260505080726 | 47 | 270 | 4.0 | 7.0 | 0.19 | 0.50 | 0.50 | 89 | |
| 20260505080221 | 47 | 333 | 3.0 | 7.0 | 0.31 | 0.49 | 0.49 | 89 | |
| 20260505075717 | 48 | 344 | 6.0 | 7.0 | 0.26 | 0.46 | 0.46 | 89 | |
| 20260505075215 | 48 | 309 | 1.0 | 3.0 | 0.31 | 0.43 | 0.43 | 90 | |
| 20260505074712 | 48 | 328 | 0.0 | 0.0 | 0.35 | 0.41 | 0.41 | 90 | |
| 20260505074209 | 48 | 320 | 0.0 | 3.0 | 0.42 | 0.38 | 0.38 | 89 | |
| 20260505073707 | 49 | 319 | 0.0 | 1.0 | 0.42 | 0.35 | 0.35 | 90 | |
| 20260505073205 | 49 | 334 | 0.0 | 0.0 | 0.31 | 0.30 | 0.30 | 88 | |
| 20260505072700 | 49 | 316 | 0.0 | 0.0 | 0.35 | 0.28 | 0.28 | 87 | |
| 20260505072156 | 49 | 318 | 0.0 | 1.0 | 0.28 | 0.25 | 0.25 | 86 | |
| 20260505071652 | 50 | 273 | 1.0 | 3.0 | 0.26 | 0.22 | 0.22 | 84 | |
| 20260505071150 | 50 | 250 | 3.0 | 5.0 | 0.19 | 0.19 | 0.19 | 84 | |
| 20260505070647 | 51 | 243 | 2.0 | 3.0 | 0.12 | 0.17 | 0.17 | 84 | |
| 20260505070143 | 51 | 244 | 2.0 | 6.0 | 0.05 | 0.16 | 0.16 | 83 | |
| 20260505065639 | 51 | 311 | 1.0 | 2.0 | 0.00 | 0.15 | 0.15 | 83 | |
| 20260505065136 | 51 | 267 | 1.0 | 2.0 | 0.07 | 0.15 | 0.15 | 83 | |
| 20260505064633 | 51 | 323 | 0.0 | 1.0 | 0.07 | 0.15 | 0.15 | 83 | |
| 20260505064131 | 51 | 324 | 0.0 | 3.0 | 0.00 | 0.14 | 0.14 | 84 | |
| 20260505063628 | 53 | 308 | 0.0 | 1.0 | 0.00 | 0.14 | 0.14 | 88 | |
| 20260505063124 | 53 | 327 | 0.0 | 0.0 | 0.00 | 0.14 | 0.14 | 88 | |
| 20260505062621 | 54 | 314 | 0.0 | 0.0 | 0.00 | 0.14 | 0.14 | 90 | |
| 20260505062118 | 54 | 328 | 0.0 | 0.0 | 0.05 | 0.14 | 0.14 | 89 | |
| 20260505061615 | 54 | 309 | 0.0 | 0.0 | 0.05 | 0.14 | 0.14 | 88 | |
| 20260505061114 | 54 | 319 | 0.0 | 0.0 | 0.07 | 0.13 | 0.13 | 89 | |
| 20260505060611 | 55 | 319 | 0.0 | 0.0 | 0.12 | 0.13 | 0.13 | 88 | |
| 20260505060107 | 55 | 330 | 0.0 | 0.0 | 0.12 | 0.12 | 0.12 | 87 | |
| 20260505055602 | 55 | 323 | 0.0 | 0.0 | 0.12 | 0.11 | 0.11 | 86 | |
| 20260505055059 | 56 | 322 | 0.0 | 0.0 | 0.24 | 0.10 | 0.10 | 84 | |
| 20260505054557 | 57 | 307 | 0.0 | 1.0 | 0.31 | 0.08 | 0.08 | 80 | |
| 20260505054055 | 59 | 302 | 0.0 | 1.0 | 0.28 | 0.05 | 0.05 | 74 | |
| 20260505053551 | 62 | 321 | 2.0 | 7.0 | 0.12 | 0.02 | 0.02 | 67 | |
| 20260505053048 | 63 | 316 | 1.0 | 3.0 | 0.00 | 0.00 | 0.00 | 60 | |
| 20260505052545 | 63 | 293 | 2.0 | 5.0 | 0.00 | 0.00 | 0.00 | 60 | |
| 20260505052043 | 64 | 287 | 2.0 | 8.0 | 0.00 | 0.00 | 0.00 | 58 | |
| 20260505051539 | 65 | 321 | 2.0 | 5.0 | 0.00 | 0.00 | 0.00 | 55 | |
| 20260505051038 | 66 | 321 | 1.0 | 7.0 | 0.00 | 0.00 | 0.00 | 52 | |
| 20260505050535 | 68 | 256 | 5.0 | 7.0 | 0.00 | 0.00 | 0.00 | 47 | |
| 20260505041503 | 69 | 354 | 2.0 | 2.0 | 0.00 | 0.00 | 0.00 | 72 | |
| 20260505041001 | 69 | 333 | 2.0 | 3.0 | 0.00 | 0.00 | 0.00 | 72 | |
| 20260505040458 | 69 | 339 | 3.0 | 5.0 | 0.00 | 0.00 | 0.00 | 72 | |
| 20260505035954 | 70 | 338 | 1.0 | 3.0 | 0.00 | 0.00 | 0.00 | 71 | |
| 20260505035450 | 70 | 348 | 0.0 | 2.0 | 0.00 | 0.00 | 0.00 | 71 | |
| 20260505034948 | 70 | 348 | 1.0 | 2.0 | 0.00 | 0.00 | 0.00 | 71 | |
| 20260505034444 | 70 | 334 | 0.0 | 0.0 | 0.00 | 0.00 | 0.00 | 71 | |
| 20260505033941 | 70 | 334 | 1.0 | 1.0 | 0.00 | 0.00 | 0.00 | 71 | |
| 20260505033438 | 70 | 340 | 0.0 | 0.0 | 0.00 | 0.00 | 0.00 | 70 | |
| 20260505032936 | 70 | 330 | 0.0 | 0.0 | 0.00 | 0.00 | 0.00 | 69 | |
| 20260505032433 | 70 | 1 | 0.0 | 1.0 | 0.00 | 0.00 | 0.00 | 69 | |
| 20260505031929 | 71 | 330 | 0.0 | 0.0 | 0.00 | 0.00 | 0.00 | 68 | |
| 20260505031427 | 71 | 337 | 0.0 | 0.0 | 0.00 | 0.00 | 0.00 | 68 | |
| 20260505030923 | 71 | 331 | 0.0 | 0.0 | 0.00 | 0.00 | 0.00 | 67 | |
| 20260505030419 | 71 | 338 | 1.0 | 1.0 | 0.00 | 0.00 | 0.00 | 66 | |
| 20260505025915 | 71 | 336 | 0.0 | 0.0 | 0.00 | 0.00 | 0.00 | 66 | |
| 20260505025412 | 72 | 332 | 0.0 | 0.0 | 0.00 | 0.00 | 0.00 | 66 | |
| 20260505024911 | 71 | 332 | 0.0 | 0.0 | 0.00 | 0.00 | 0.00 | 66 | |
| 20260505024408 | 72 | 327 | 0.0 | 0.0 | 0.00 | 0.00 | 0.00 | 66 | |
| 20260505023905 | 71 | 350 | 0.0 | 0.0 | 0.00 | 0.00 | 0.00 | 65 | |
| 20260505023402 | 70 | 333 | 0.0 | 0.0 | 0.00 | 0.00 | 0.00 | 66 | |
| 20260505022859 | 70 | 329 | 0.0 | 0.0 | 0.00 | 0.00 | 0.00 | 67 | |
| 20260505022356 | 70 | 327 | 0.0 | 0.0 | 0.00 | 0.00 | 0.00 | 67 | |
| 20260505021854 | 70 | 327 | 0.0 | 0.0 | 0.00 | 0.00 | 0.00 | 66 | |
| 20260505021350 | 70 | 329 | 0.0 | 0.0 | 0.00 | 0.00 | 0.00 | 66 | |
| 20260505020846 | 70 | 329 | 0.0 | 0.0 | 0.00 | 0.00 | 0.00 | 65 | |
| 20260505020341 | 71 | 329 | 0.0 | 0.0 | 0.00 | 0.00 | 0.00 | 64 | |
| 20260505015839 | 70 | 329 | 0.0 | 0.0 | 0.00 | 0.00 | 0.00 | 64 | |
| 20260505015336 | 70 | 329 | 0.0 | 0.0 | 0.00 | 0.00 | 0.00 | 65 | |
| 20260505014833 | 70 | 329 | 0.0 | 0.0 | 0.00 | 0.00 | 0.00 | 65 | |
| 20260505014330 | 71 | 328 | 0.0 | 0.0 | 0.00 | 0.00 | 0.00 | 64 | |
| 20260505013826 | 71 | 328 | 0.0 | 0.0 | 0.00 | 0.00 | 0.00 | 64 | |
| 20260505013324 | 71 | 329 | 0.0 | 0.0 | 0.00 | 0.00 | 0.00 | 63 | |
| 20260505012822 | 72 | 328 | 0.0 | 0.0 | 0.00 | 0.00 | 0.00 | 62 | |
| 20260505012320 | 72 | 328 | 0.0 | 0.0 | 0.00 | 0.00 | 0.00 | 61 | |
| 20260505011815 | 73 | 329 | 0.0 | 0.0 | 0.00 | 0.00 | 0.00 | 60 | |
| 20260505011312 | 73 | 325 | 0.0 | 0.0 | 0.00 | 0.00 | 0.00 | 59 | |
| 20260505010808 | 73 | 320 | 0.0 | 0.0 | 0.00 | 0.00 | 0.00 | 59 | |
| 20260505010304 | 74 | 320 | 0.0 | 0.0 | 0.00 | 0.00 | 0.00 | 58 | |
| 20260505005801 | 74 | 320 | 0.0 | 0.0 | 0.00 | 0.00 | 0.00 | 57 | |
| 20260505005258 | 75 | 320 | 0.0 | 0.0 | 0.00 | 0.00 | 0.00 | 57 | |
| 20260505004755 | 75 | 320 | 0.0 | 0.0 | 0.00 | 0.00 | 0.00 | 57 | |
| 20260505004251 | 76 | 320 | 0.0 | 0.0 | 0.00 | 0.00 | 0.00 | 55 | |
| 20260505003749 | 76 | 320 | 0.0 | 0.0 | 0.00 | 0.00 | 0.00 | 54 | |
| 20260505003246 | 77 | 320 | 0.0 | 0.0 | 0.00 | 0.00 | 0.00 | 53 | |
| 20260505002742 | 77 | 320 | 0.0 | 0.0 | 0.00 | 0.00 | 0.00 | 53 | |
| 20260505002240 | 77 | 320 | 0.0 | 0.0 | 0.00 | 0.00 | 0.00 | 52 | |
| 20260505001737 | 78 | 320 | 0.0 | 0.0 | 0.00 | 0.00 | 0.00 | 52 | |
| 20260505001235 | 78 | 320 | 0.0 | 0.0 | 0.00 | 0.00 | 0.00 | 52 | |
| 20260505000731 | 77 | 320 | 0.0 | 0.0 | 0.00 | 0.00 | 0.00 | 52 | |
| 20260505000229 | 77 | 320 | 0.0 | 0.0 | 0.00 | 0.00 | 0.00 | 52 | |
| 20260504235726 | 77 | 320 | 0.0 | 0.0 | 0.00 | 0.00 | 0.00 | 52 | |
| 20260504235221 | 77 | 320 | 0.0 | 0.0 | 0.00 | 0.00 | 0.00 | 51 | |
| 20260504234719 | 78 | 320 | 0.0 | 0.0 | 0.00 | 0.00 | 0.00 | 50 | |
| 20260504234216 | 78 | 323 | 0.0 | 0.0 | 0.00 | 0.00 | 0.00 | 51 | |
| 20260504233712 | 78 | 324 | 0.0 | 0.0 | 0.00 | 0.00 | 0.00 | 50 | |
| 20260504233208 | 78 | 324 | 0.0 | 0.0 | 0.00 | 0.00 | 0.00 | 50 | |
| 20260504232706 | 78 | 320 | 0.0 | 0.0 | 0.00 | 0.00 | 0.00 | 50 | |
| 20260504232203 | 78 | 337 | 0.0 | 0.0 | 0.00 | 0.00 | 0.00 | 49 | |
| 20260504231659 | 79 | 75 | 0.0 | 1.0 | 0.00 | 0.00 | 0.00 | 47 | |
| 20260504231155 | 79 | 326 | 0.0 | 0.0 | 0.00 | 0.00 | 0.00 | 48 | |
| 20260504230652 | 80 | 6 | 0.0 | 1.0 | 0.00 | 0.00 | 0.00 | 47 | |
| 20260504230151 | 80 | 290 | 0.0 | 0.0 | 0.00 | 0.00 | 0.00 | 45 | |
| 20260504225649 | 80 | 290 | 0.0 | 3.0 | 0.00 | 0.00 | 0.00 | 47 | |
| 20260504225144 | 80 | 330 | 0.0 | 1.0 | 0.00 | 0.00 | 0.00 | 45 | |
| 20260504224642 | 80 | 312 | 0.0 | 2.0 | 0.00 | 0.00 | 0.00 | 48 | |
| 20260504224138 | 79 | 325 | 0.0 | 0.0 | 0.00 | 0.00 | 0.00 | 48 | |
| 20260504223636 | 80 | 304 | 1.0 | 2.0 | 0.00 | 0.00 | 0.00 | 48 | |
| 20260504223131 | 80 | 332 | 0.0 | 0.0 | 0.00 | 0.00 | 0.00 | 47 | |
| 20260504222628 | 80 | 224 | 0.0 | 0.0 | 0.00 | 0.00 | 0.00 | 47 | |
| 20260504222125 | 80 | 188 | 2.0 | 5.0 | 0.00 | 0.00 | 0.00 | 45 | |
| 20260504221623 | 80 | 315 | 0.0 | 1.0 | 0.00 | 0.00 | 0.00 | 46 | |
| 20260504221120 | 80 | 331 | 0.0 | 0.0 | 0.00 | 0.00 | 0.00 | 48 | |
| 20260504220616 | 79 | 313 | 0.0 | 0.0 | 0.00 | 0.00 | 0.00 | 51 | |
| 20260504220114 | 79 | 334 | 0.0 | 2.0 | 0.00 | 0.00 | 0.00 | 48 | |
| 20260504215609 | 79 | 265 | 1.0 | 2.0 | 0.00 | 0.00 | 0.00 | 49 |